Probability
0 0 0 0 0 0 0 0 0 0 0 0 0 0 0 0 0 0 0 0 0 0 0 0 0 0 0 1 2 2 2 2 1 0 0 0 0 0
0 0 0 0 0 0 0 0 0 0 0 0 0 0 0 0 0 0 0 0 0 0 0 0 0 0 0 0 1 1 1 1 0 0 0 0 0 0
0 0 0 0 0 0 0 0 0 0 0 0 0 0 0 0 0 0 0 0 0 0 0 0 0 0 0 0 0 0 0 0 0 0 0 0 0 0
0 0 0 0 0 0 0 0 0 0 0 0 0 0 0 0 0 0 0 0 0 0 0 0 0 0 0 0 0 0 0 0 0 0 0 0 0 0
0 0 0 0 0 0 0 0 0 0 0 0 0 0 0 0 0 0 0 0 0 0 0 0 0 0 0 0 0 0 0 0 0 0 0 0 0 0
0 0 0 0 0 0 0 0 0 0 0 0 0 0 0 0 0 0 0 0 0 0 0 0 0 0 0 0 0 0 0 0 0 0 0 0 0 0
0 0 0 0 0 0 0 0 0 0 0 0 0 0 0 0 0 0 0 0 0 0 0 0 0 0 0 0 0 0 0 0 0 0 0 0 0 0
0 0 0 0 0 0 0 0 0 0 0 0 0 0 0 0 0 0 0 0 0 0 0 0 0 0 0 0 0 0 0 0 0 0 0 0 0 0
0 0 0 0 0 0 0 0 0 0 0 0 0 0 0 0 0 0 0 0 0 0 0 0 0 0 0 0 0 0 0 0 0 0 0 0 0 0
0 0 0 0 0 0 0 0 0 0 0 0 0 0 0 0 0 0 0 0 0 0 0 0 0 0 0 0 0 0 0 0 0 0 0 0 0 0
0 0 0 0 0 0 0 0 0 0 0 0 0 0 0 0 0 0 0 0 0 0 0 0 0 0 0 0 0 0 0 0 0 0 0 0 0 0
0 0 0 0 0 0 0 0 0 0 0 0 0 0 0 0 0 0 0 0 0 0 0 0 0 0 0 0 0 0 0 0 0 0 0 0 0 0
0 0 0 0 0 0 0 0 0 0 0 0 0 0 0 0 0 0 0 0 0 0 0 0 0 0 0 0 0 0 0 0 0 0 0 0 0 0
0 0 0 0 0 0 0 0 0 0 0 0 0 0 0 0 0 0 0 0 0 0 0 0 0 0 0 0 0 0 0 0 0 0 0 0 0 0
0 0 0 0 0 0 0 0 0 0 0 0 0 0 0 0 0 0 0 0 0 0 0 0 0 0 0 0 0 0 0 0 0 0 0 0 0 0
0 0 0 0 0 0 0 0 0 0 0 0 0 0 0 0 0 0 0 0 0 0 0 0 0 0 0 0 0 0 0 0 0 0 0 0 0 0
0 0 0 0 0 0 0 0 0 0 0 0 0 0 0 0 0 0 0 0 0 0 0 0 0 0 0 0 0 0 0 0 0 0 0 0 0 0
0 0 0 0 0 0 0 0 0 0 0 0 0 0 0 0 0 0 0 0 0 0 0 0 0 0 0 0 0 0 0 0 0 0 0 0 0 0
0 0 0 0 0 0 0 0 0 0 0 0 0 0 0 0 0 0 0 0 0 0 0 0 0 0 0 0 0 0 0 0 0 0 0 0 0 0
0 0 0 0 0 0 0 0 0 0 0 0 0 0 0 0 0 0 0 0 0 0 0 0 0 0 0 0 0 0 0 0 0 0 0 0 0 0
0 0 0 0 0 0 0 0 0 0 0 0 0 0 0 0 0 0 0 0 0 0 0 0 0 0 0 0 0 0 0 0 0 0 0 0 0 0
0 0 0 0 0 0 0 0 0 0 0 0 0 0 0 0 0 0 0 0 0 0 0 0 0 0 0 0 0 0 0 0 0 0 0 0 0 0
0 0 0 0 0 0 0 0 0 0 0 0 0 0 0 0 0 0 0 0 0 0 0 0 0 0 0 0 0 0 0 0 0 0 0 0 0 0
Wind_Speed
5 5 5 4 4 4 4 4 4 5 5 3 2 2 2 2 3 3 3 5 6 6 6 6 5 5 5 6 6 6 6 6 6 6 6 6 7 7
5 5 5 4 4 4 4 4 4 5 6 3 3 3 3 3 5 3 3 6 6 6 6 5 5 5 5 5 6 6 6 6 6 7 6 6 6 6
6 6 6 6 5 4 4 4 4 4 6 4 3 3 3 4 3 3 3 3 3 5 6 6 6 5 6 6 6 6 7 7 7 7 6 6 5 6
7 7 7 6 6 5 5 5 5 5 5 6 4 3 4 4 3 4 3 3 2 5 6 6 6 6 5 6 6 6 7 7 7 7 7 7 7 6
7 8 8 7 7 6 6 6 5 5 4 5 5 3 3 3 3 3 3 3 3 4 5 5 5 6 6 6 6 6 6 7 7 8 7 7 7 7
8 8 8 8 8 8 7 7 6 5 5 5 5 3 3 3 3 3 3 3 3 3 4 4 4 5 5 6 6 6 6 6 7 7 7 7 7 7
8 8 9 10 12 10 7 6 6 6 5 5 5 4 4 3 4 3 4 3 3 3 3 2 3 3 3 5 6 7 7 7 7 7 7 7 7 7
9 8 9 10 12 14 13 12 9 8 7 6 6 6 6 5 4 4 3 3 4 2 2 3 2 3 3 3 5 7 7 7 7 8 8 8 7 7
8 8 8 8 10 8 10 12 11 12 12 9 8 9 7 6 6 6 6 5 5 3 3 3 2 3 3 4 6 6 7 7 8 8 8 8 8 8
8 9 9 8 8 9 8 8 8 8 10 8 8 8 6 6 7 7 7 5 4 3 3 4 3 3 3 3 6 6 7 8 8 8 8 8 8 8
8 8 9 8 12 13 9 8 8 7 9 11 11 10 11 11 8 5 5 5 5 4 3 3 3 2 3 3 4 6 7 8 8 8 8 8 7 7
6 7 11 11 12 13 9 8 8 7 6 6 7 8 8 8 10 7 6 6 4 4 4 3 3 2 2 2 2 2 4 7 9 9 9 8 7 5
6 5 6 11 13 13 11 7 9 7 5 5 4 4 4 4 4 5 5 6 6 5 4 4 3 3 3 2 2 2 2 3 4 5 7 8 8 6
6 5 6 11 12 11 8 7 8 6 3 3 4 4 4 4 3 3 4 4 5 5 4 4 4 4 4 3 3 2 1 2 3 4 4 6 7 8
5 9 10 10 8 5 5 6 5 3 3 3 4 4 3 3 3 2 2 3 3 3 4 4 4 4 4 4 3 2 2 2 3 3 3 4 4 4
5 6 8 7 5 5 4 3 3 3 3 3 3 3 2 2 3 3 3 3 3 2 2 3 4 5 4 4 4 3 3 3 2 3 3 3 4 4
5 3 3 3 2 2 2 2 2 2 2 2 3 3 3 3 3 2 3 3 3 4 3 2 2 3 4 4 4 4 4 3 3 3 3 3 4 4
5 3 3 3 3 3 3 3 2 2 2 2 3 3 3 3 3 2 2 3 4 4 3 2 2 2 1 2 4 5 4 4 3 3 3 3 4 3
4 3 3 3 3 3 3 3 3 3 3 2 3 3 2 2 2 2 2 3 3 3 3 3 3 4 4 3 2 4 4 3 2 2 3 3 4 4
3 3 4 4 4 3 3 3 3 3 3 2 2 2 2 2 2 3 3 3 3 3 2 2 3 4 5 4 2 2 4 4 3 3 3 2 2 3
4 4 4 4 4 4 3 3 3 3 3 3 2 2 2 2 2 3 3 4 3 3 3 3 3 3 2 2 1 2 1 3 4 3 3 2 2 2
5 4 4 4 4 4 4 3 3 3 3 3 2 2 2 2 2 2 2 3 3 2 2 2 1 2 2 3 3 2 2 1 1 2 3 3 3 3
5 5 5 5 4 4 4 4 4 3 3 3 2 2 2 2 2 2 2 2 2 2 2 1 1 1 2 3 3 2 2 1 1 1 2 3 3 4
Wind_Direction
275 271 259 254 247 243 236 227 231 256 265 254 255 265 266 266 269 260 252 261 261 257 258 262 269 257 236 231 228 229 227 223 222 228 236 236 237 238
285 277 268 259 253 247 240 236 236 240 254 245 250 272 276 277 272 269 260 271 263 256 252 252 249 255 237 230 230 229 227 223 222 224 228 234 235 236
285 281 278 262 253 248 244 240 239 237 250 265 257 261 254 254 266 262 252 254 255 254 250 244 242 248 241 229 230 231 228 223 221 220 223 229 235 240
278 275 278 276 258 251 243 241 241 236 239 255 259 251 253 247 245 251 262 259 247 259 254 246 242 242 247 233 227 230 228 223 220 220 222 227 232 241
268 268 269 270 263 255 247 243 242 244 236 242 254 248 255 246 246 259 263 263 263 260 254 248 246 244 244 238 226 223 228 225 224 221 220 225 231 239
263 261 261 258 259 255 249 243 237 236 235 235 247 246 245 235 226 239 258 250 258 261 256 254 250 249 247 239 231 228 230 226 222 224 225 224 229 237
264 260 259 260 260 256 252 242 234 232 233 234 239 242 234 222 226 226 242 249 256 241 239 246 241 242 245 244 237 230 226 221 218 219 222 224 227 230
268 264 263 264 266 264 263 255 244 237 231 234 240 237 236 227 223 227 232 239 255 222 216 252 226 237 242 239 240 228 221 219 218 220 224 229 229 229
273 268 266 263 267 261 261 259 253 250 246 238 237 238 235 227 219 227 230 239 245 221 202 244 226 239 247 243 247 240 224 222 223 223 225 227 227 229
269 263 262 262 259 254 249 249 245 246 246 242 239 242 241 230 225 230 235 240 251 241 214 236 229 234 248 242 238 242 237 229 224 225 225 227 228 231
272 267 261 256 259 260 253 248 248 249 254 248 247 247 247 245 240 227 222 222 241 241 215 217 221 231 241 242 242 243 242 232 226 228 231 230 231 231
277 271 267 264 262 260 249 243 243 247 243 247 250 253 251 245 243 232 218 222 231 236 209 198 205 200 244 246 240 238 240 235 235 236 235 234 232 223
284 281 273 274 272 266 263 250 246 248 237 235 241 246 246 239 238 234 226 221 227 231 201 188 198 201 208 237 249 229 225 239 230 229 227 231 233 227
286 284 280 283 280 272 270 266 262 255 237 232 236 241 244 242 241 236 231 230 236 232 212 205 206 203 201 223 240 243 235 245 234 229 219 229 232 234
290 290 294 298 298 287 281 277 269 250 233 234 238 247 247 241 234 228 226 219 230 237 225 222 213 209 213 219 217 219 232 247 237 225 222 220 220 218
308 306 311 316 319 317 311 299 275 251 243 241 243 246 241 231 232 227 227 221 225 232 218 213 212 209 216 222 214 223 223 227 235 239 236 236 230 224
318 328 335 332 324 318 313 306 295 285 271 255 244 238 236 235 235 232 229 221 223 222 211 200 192 201 215 210 214 220 220 227 227 234 235 247 240 225
334 331 325 321 319 315 309 307 301 291 283 274 263 248 237 232 237 238 228 217 220 220 207 193 171 165 193 265 225 220 219 225 227 235 234 237 247 234
345 331 325 321 318 316 313 309 303 296 288 275 267 259 246 237 235 233 226 218 222 223 208 198 190 182 197 229 258 218 210 214 220 235 234 233 238 242
339 330 323 320 315 311 310 307 302 300 296 286 270 258 243 229 229 230 225 216 219 216 206 199 201 201 202 206 214 245 234 220 211 229 247 260 260 258
331 327 323 320 315 311 309 307 303 298 295 289 281 268 251 231 227 231 227 224 223 209 208 219 217 207 169 140 183 239 249 247 235 225 223 232 261 257
327 323 321 319 316 313 311 309 307 302 299 292 287 279 265 244 230 229 229 223 217 207 213 224 188 174 173 183 204 224 256 301 321 303 277 242 209 208
322 319 317 317 314 313 310 307 304 300 295 292 289 281 266 259 253 239 239 229 203 190 184 181 166 159 176 184 193 208 223 251 293 2 322 301 273 267